Regional Weather Roundup
Issued by NWS Northern Indiana

Home | Current Version | Previous Version | Graphics & Text | Print | Product List | Glossary On
Versions: 1 2 3 4 5 6 7 8 9 10 11 12 13 14 15 16 17 18 19 20 21 22 23 24 25 26 27 28 29 30 31 32 33 34 35 36 37 38 39 40 41 42 43 44 45 46 47 48 49 50
000
ASUS43 KIWX 040200
RWRIWX

KIWX WEATHER ROUNDUP
NATIONAL WEATHER SERVICE NORTHERN INDIANA
1000 PM EDT TUE MAY 03 2016

NOTE: "FAIR" INDICATES FEW OR NO CLOUDS BELOW 12,000 FEET WITH NO
SIGNIFICANT WEATHER AND/OR OBSTRUCTIONS TO VISIBILITY.

* THESE STATIONS ARE NOT UNDER NWS QUALITY CONTROL. THEY ALSO MAY NOT
  REPORT WEATHER SUCH AS PRECIPITATION OR FOG.

INZ001>027-040300-
NORTHERN INDIANA

CITY           SKY/WX    TMP DP  RH WIND       PRES   REMARKS
SOUTH BEND     CLOUDY    58  41  53 S7        29.78F
GOSHEN         CLOUDY    56  42  59 S6        29.79F
ANGOLA*        CLOUDY    52  45  76 CALM      29.79F
FORT WAYNE     PTCLDY    51  43  74 SW9       29.82F
PERU/GRISSOM   CLEAR     52  46  82 S9        29.81F

$$
INZ028>050-040300-
CENTRAL INDIANA

CITY           SKY/WX    TMP DP  RH WIND       PRES   REMARKS
LAFAYETTE      PTCLDY    55  44  66 CALM      29.83S
KOKOMO*        PTCLDY    52  43  71 S8        29.82F
MUNCIE*        CLEAR     53  44  71 S3        29.85S
INDIANAPOLIS   NOT AVBL

$$
MIZ043>046-050>051-056>058-064>065-071>073-077>080-040300-
SOUTHWEST LOWER MICHIGAN

CITY           SKY/WX    TMP DP  RH WIND       PRES   REMARKS
BATTLE CREEK   CLOUDY    54  38  54 S7        29.77F
BENTON HARBOR  CLOUDY    60  38  43 S5        29.75F
COLDWATER*     CLOUDY    56  37  49 CALM      29.78F
HILLSDALE*     MOCLDY    54  35  48 S5        29.79S
HOLLAND        MOCLDY    58  37  45 S9        29.73F
GRAND RAPIDS   CLOUDY    57  39  51 S8        29.73F
KALAMAZOO      CLOUDY    57  37  47 SW7       29.76F
STURGIS*       CLOUDY    55  38  54 S6        29.78S
THREE RIVERS*  CLOUDY    58  38  48 CALM      29.78F

$$
OHZ001>008-015>018-024>025-040300-
NORTHWEST OHIO

CITY           SKY/WX    TMP DP  RH WIND       PRES   REMARKS
DEFIANCE       CLEAR     52  43  71 S7        29.81S
FINDLAY        CLEAR     52  41  66 SW7       29.82S
TOLEDO EXPRESS CLEAR     53  40  61 S6        29.80S
TOLEDO METCALF CLEAR     50  42  74 S7        29.81S
LIMA           CLEAR     51  42  71 S7        29.83S

$$
AND FOR LAKE MICHIGAN COASTAL AND OPEN LAKE BUOY OBSERVATIONS

STATION/POSITION TEMP    WIND        PRES    VSBY  WAVE
                 AIR SEA DIR/SP/G                  HT/PER
                 (F)     (DEG/KT/KT) (MB)    (MI)  (FT/S)
CALUMET HARBOR    64                 1007.7F
MICHIGAN CITY     62     170/  8/  9   N/A
BURNS HARBOR      63     230/  8/ 13 1008.8F
SAINT JOSEPH      60     180/ 12/ 16 1008.1F
SOUTH LAKE BUOY   46 41  180/ 12/ 14 1006.6          1/ 3
4 MI NW BRIDGMAN  55 50                N/A           0

$$
&&



USA.gov is the U.S. government's official web portal to all federal, state and local government web resources and services.